Location: Newark
(55.2831°N, 38.7366°E)
Time: 00:00:29
(UTC+00:00)

POLYITAN 1 - Visible Passes

Search period start: 22 September 2019 00:00
Search period end: 02 October 2019 00:00
Orbit: 591 x 613 km, 97.9° (Epoch: 21 September)

Date Brightness Start Highest point End Pass type
(mag) Time Alt. Az. Time Alt. Az. Time Alt. Az.
22 Sep ? 21:39:10 10° NNE 21:40:14 17° NE 21:40:14 17° NE visible
22 Sep ? 23:15:01 10° N 23:17:01 23° NNW 23:17:01 23° NNW visible
23 Sep ? 21:50:46 10° NNE 21:51:57 18° NNE 21:51:57 18° NNE visible
23 Sep ? 23:26:50 10° N 23:28:44 21° NNW 23:28:44 21° NNW visible
24 Sep ? 22:02:23 10° NNE 22:03:41 19° NNE 22:03:41 19° NNE visible
24 Sep ? 23:38:41 10° N 23:40:27 19° NNW 23:40:27 19° NNW visible
25 Sep ? 22:14:03 10° NNE 22:15:24 20° NNE 22:15:24 20° NNE visible
25 Sep ? 23:50:36 10° N 23:52:11 16° NNW 23:52:11 16° NNW visible
26 Sep ? 22:25:45 10° NNE 22:27:07 20° NNE 22:27:07 20° NNE visible
27 Sep ? 00:02:34 10° NNW 00:03:54 14° NNW 00:03:54 14° NNW visible
27 Sep ? 22:37:27 10° NNE 22:38:50 20° N 22:38:50 20° N visible
28 Sep ? 00:14:38 10° NNW 00:15:37 12° NW 00:15:37 12° NW visible
28 Sep ? 22:49:12 10° N 22:50:33 20° N 22:50:33 20° N visible
29 Sep ? 00:26:55 10° NNW 00:27:20 11° NW 00:27:20 11° NW visible
29 Sep ? 21:25:25 10° NE 21:25:30 10° NE 21:25:30 10° NE visible
29 Sep ? 23:00:58 10° N 23:02:16 19° N 23:02:16 19° N visible
30 Sep ? 21:36:57 10° NNE 21:37:13 11° NNE 21:37:13 11° NNE visible
30 Sep ? 23:12:45 10° N 23:14:00 18° N 23:14:00 18° N visible
01 Oct ? 21:48:32 10° NNE 21:48:56 12° NNE 21:48:56 12° NNE visible
01 Oct ? 23:24:33 10° N 23:25:43 17° NNW 23:25:43 17° NNW visible
